OneWeb SL0558

operational
NORAD ID: 56059 Int'l Des: 2023-043 Owner: ONEWEBN Country: UK Constellation: oneweb
LEOCIRCULARPOLARONEWEB_TYPE

About OneWeb SL0558

Description loading...

Live Position

Loading 3D Globe...

Upcoming Passes

Altitude History

Altitude vs Time

uPlot chart will show altitude changes over time

Two-Line Element Set

1 56059U 23043P 26033.17441304 .00000032 00000-0 45357-4 0 9998
2 56059 87.9191 270.9147 0001322 102.0809 258.0473 13.21827977140405
Epoch: Feb 2, 2026 • Age: 27 hours

Current Status

Altitude 1183.1 km
Velocity 7.26 km/s
Sub-Earth Point -11.02°S, 26.08°E
Launch Date Mar 26, 2023
Age 2.8 years
Type internet

Technical Details

Classification Payload
Mass 148.00 kg
Dry Mass 140.00 kg
Total Mass 148.00 kg
Length 1.30 m
Diameter 1.00 m
Span 5.00 m
Shape Trapezoid+2 pan
Manufacturer ONEWUS
Bus Type ARROW
Phase Status In Orbit
Owner/State ONEWEBN/UK

Large Constellations

Loading constellations...